Time,TemperatureF,DewpointF,PressureIn,WindDirection,WindDirectionDegrees,WindSpeedMPH,WindSpeedGustMPH,Humidity,HourlyPrecipIn,Conditions,Clouds,dailyrainin,SoftwareType,DateUTC
2013-02-04 00:00:00,39.1,25.0,30.00,WSW,248,0.0,0.0,57,0.00,,,0.00,WUHU216HW,2013-02-04 05:00:00,
2013-02-04 00:02:00,39.1,25.0,30.00,WSW,248,0.0,0.0,57,0.00,,,0.00,WUHU216HW,2013-02-04 05:02:00,
2013-02-04 00:07:00,39.1,25.0,30.00,WSW,248,0.0,0.0,57,0.00,,,0.00,WUHU216HW,2013-02-04 05:07:00,
2013-02-04 00:30:00,36.9,24.0,30.00,SW,225,0.2,0.2,59,0.00,,,0.00,WUHU216HW,2013-02-04 05:30:00,
2013-02-04 00:35:00,36.9,24.0,30.00,SW,225,0.2,0.2,59,0.00,,,0.00,WUHU216HW,2013-02-04 05:35:00,
2013-02-04 01:00:00,34.7,23.0,30.00,SW,225,0.0,0.0,62,0.00,,,0.00,WUHU216HW,2013-02-04 06:00:00,
2013-02-04 01:05:00,34.7,23.0,30.00,SW,225,0.0,0.0,62,0.00,,,0.00,WUHU216HW,2013-02-04 06:05:00,
2013-02-04 01:30:00,33.3,22.8,30.00,SW,225,0.0,0.0,65,0.00,,,0.00,WUHU216HW,2013-02-04 06:30:00,
2013-02-04 01:35:00,33.3,22.8,30.00,SW,225,0.0,0.0,65,0.00,,,0.00,WUHU216HW,2013-02-04 06:35:00,
2013-02-04 02:00:00,31.7,21.6,30.00,SW,225,0.0,0.0,66,0.00,,,0.00,WUHU216HW,2013-02-04 07:00:00,
2013-02-04 02:05:00,31.7,21.6,30.00,SW,225,0.0,0.0,66,0.00,,,0.00,WUHU216HW,2013-02-04 07:05:00,
2013-02-04 02:30:00,30.6,21.6,30.01,SW,225,0.0,0.0,69,0.00,,,0.00,WUHU216HW,2013-02-04 07:30:00,
2013-02-04 02:35:00,30.6,21.6,30.01,SW,225,0.0,0.0,69,0.00,,,0.00,WUHU216HW,2013-02-04 07:35:00,
2013-02-04 03:00:00,29.9,21.2,30.02,SW,225,0.0,0.0,70,0.00,,,0.00,WUHU216HW,2013-02-04 08:00:00,
2013-02-04 03:05:00,29.9,21.2,30.02,SW,225,0.0,0.0,70,0.00,,,0.00,WUHU216HW,2013-02-04 08:05:00,
2013-02-04 03:30:00,29.2,21.2,30.03,SSW,203,0.2,0.2,72,0.00,,,0.00,WUHU216HW,2013-02-04 08:30:00,
2013-02-04 03:35:00,29.2,21.2,30.03,SSW,203,0.2,0.2,72,0.00,,,0.00,WUHU216HW,2013-02-04 08:35:00,
2013-02-04 04:00:00,28.8,21.3,30.03,SW,225,0.0,0.0,73,0.00,,,0.00,WUHU216HW,2013-02-04 09:00:00,
2013-02-04 04:05:00,28.8,21.3,30.03,SW,225,0.0,0.0,73,0.00,,,0.00,WUHU216HW,2013-02-04 09:05:00,
2013-02-04 04:30:00,28.4,20.9,30.04,SW,225,0.0,0.0,73,0.00,,,0.00,WUHU216HW,2013-02-04 09:30:00,
2013-02-04 04:35:00,28.4,20.9,30.04,SW,225,0.0,0.0,73,0.00,,,0.00,WUHU216HW,2013-02-04 09:35:00,
2013-02-04 05:00:00,27.9,20.7,30.05,SW,225,0.2,0.2,74,0.00,,,0.00,WUHU216HW,2013-02-04 10:00:00,
2013-02-04 05:05:00,27.9,20.7,30.05,SW,225,0.2,0.2,74,0.00,,,0.00,WUHU216HW,2013-02-04 10:05:00,
2013-02-04 05:30:00,27.7,20.8,30.05,SW,225,0.0,0.0,75,0.00,,,0.00,WUHU216HW,2013-02-04 10:30:00,
2013-02-04 05:35:00,27.7,20.8,30.05,SW,225,0.0,0.0,75,0.00,,,0.00,WUHU216HW,2013-02-04 10:35:00,
2013-02-04 06:00:00,27.0,20.1,30.06,SSW,203,0.0,0.0,75,0.00,,,0.00,WUHU216HW,2013-02-04 11:00:00,
2013-02-04 06:05:00,27.0,20.1,30.06,SSW,203,0.0,0.0,75,0.00,,,0.00,WUHU216HW,2013-02-04 11:05:00,
2013-02-04 06:30:00,26.8,19.9,30.06,SSW,203,0.0,0.0,75,0.00,,,0.00,WUHU216HW,2013-02-04 11:30:00,
2013-02-04 06:35:00,26.8,19.9,30.06,SSW,203,0.0,0.0,75,0.00,,,0.00,WUHU216HW,2013-02-04 11:35:00,
2013-02-04 07:00:00,26.5,19.9,30.07,SSW,203,0.0,0.0,76,0.00,,,0.00,WUHU216HW,2013-02-04 12:00:00,
2013-02-04 07:05:00,26.5,19.9,30.07,SSW,203,0.0,0.0,76,0.00,,,0.00,WUHU216HW,2013-02-04 12:05:00,
2013-02-04 07:30:00,26.5,20.2,30.08,SW,225,0.0,0.0,77,0.00,,,0.00,WUHU216HW,2013-02-04 12:30:00,
2013-02-04 07:35:00,26.5,20.2,30.08,SW,225,0.0,0.0,77,0.00,,,0.00,WUHU216HW,2013-02-04 12:35:00,
2013-02-04 08:00:00,27.5,21.5,30.10,SW,225,0.0,0.0,78,0.00,,,0.00,WUHU216HW,2013-02-04 13:00:00,
2013-02-04 08:05:00,27.5,21.5,30.10,SW,225,0.0,0.0,78,0.00,,,0.00,WUHU216HW,2013-02-04 13:05:00,
2013-02-04 08:30:00,30.2,24.2,30.12,SW,225,0.0,0.0,78,0.00,,,0.00,WUHU216HW,2013-02-04 13:30:00,
2013-02-04 08:35:00,30.2,24.2,30.12,SW,225,0.0,0.0,78,0.00,,,0.00,WUHU216HW,2013-02-04 13:35:00,
2013-02-04 09:00:00,33.5,27.6,30.13,NNE,23,0.0,0.0,79,0.00,,,0.00,WUHU216HW,2013-02-04 14:00:00,
2013-02-04 09:05:00,33.5,27.6,30.13,NNE,23,0.0,0.0,79,0.00,,,0.00,WUHU216HW,2013-02-04 14:05:00,
2013-02-04 09:30:00,37.6,29.1,30.13,NNE,23,0.0,0.0,71,0.00,,,0.00,WUHU216HW,2013-02-04 14:30:00,
2013-02-04 09:35:00,37.6,29.1,30.13,NNE,23,0.0,0.0,71,0.00,,,0.00,WUHU216HW,2013-02-04 14:35:00,
2013-02-04 10:00:00,39.2,28.0,30.14,NE,45,0.7,0.7,64,0.00,,,0.00,WUHU216HW,2013-02-04 15:00:00,
2013-02-04 10:05:00,39.2,28.0,30.14,NE,45,0.7,0.7,64,0.00,,,0.00,WUHU216HW,2013-02-04 15:05:00,
2013-02-04 10:30:00,41.4,29.3,30.14,North,0,0.2,0.2,62,0.00,,,0.00,WUHU216HW,2013-02-04 15:30:00,
2013-02-04 10:35:00,41.4,29.3,30.14,North,0,0.2,0.2,62,0.00,,,0.00,WUHU216HW,2013-02-04 15:35:00,
2013-02-04 11:00:00,43.2,26.7,30.14,ENE,68,0.2,0.2,52,0.00,,,0.00,WUHU216HW,2013-02-04 16:00:00,
2013-02-04 11:05:00,43.2,26.7,30.14,ENE,68,0.2,0.2,52,0.00,,,0.00,WUHU216HW,2013-02-04 16:05:00,
2013-02-04 11:30:00,45.0,27.0,30.13,NNE,23,1.3,1.3,49,0.00,,,0.00,WUHU216HW,2013-02-04 16:30:00,
2013-02-04 11:35:00,45.0,27.0,30.13,NNE,23,1.3,1.3,49,0.00,,,0.00,WUHU216HW,2013-02-04 16:35:00,
2013-02-04 12:00:00,46.6,26.8,30.12,NNW,338,1.1,1.1,46,0.00,,,0.00,WUHU216HW,2013-02-04 17:00:00,
2013-02-04 12:05:00,46.6,26.8,30.12,NNW,338,1.1,1.1,46,0.00,,,0.00,WUHU216HW,2013-02-04 17:05:00,
2013-02-04 12:30:00,46.8,25.9,30.11,WSW,248,0.2,0.2,44,0.00,,,0.00,WUHU216HW,2013-02-04 17:30:00,
2013-02-04 12:35:00,46.8,25.9,30.11,WSW,248,0.2,0.2,44,0.00,,,0.00,WUHU216HW,2013-02-04 17:35:00,
2013-02-04 13:00:00,47.2,25.7,30.09,North,0,0.4,0.4,43,0.00,,,0.00,WUHU216HW,2013-02-04 18:00:00,
2013-02-04 13:05:00,47.2,25.7,30.09,North,0,0.4,0.4,43,0.00,,,0.00,WUHU216HW,2013-02-04 18:05:00,
2013-02-04 13:30:00,48.8,27.7,30.09,WSW,248,0.2,0.2,44,0.00,,,0.00,WUHU216HW,2013-02-04 18:30:00,
2013-02-04 13:35:00,48.8,27.7,30.09,WSW,248,0.2,0.2,44,0.00,,,0.00,WUHU216HW,2013-02-04 18:35:00,
2013-02-04 14:00:00,49.0,27.3,30.07,ENE,68,0.0,0.0,43,0.00,,,0.00,WUHU216HW,2013-02-04 19:00:00,
2013-02-04 14:05:00,49.0,27.3,30.07,ENE,68,0.0,0.0,43,0.00,,,0.00,WUHU216HW,2013-02-04 19:05:00,
2013-02-04 14:30:00,50.0,27.7,30.07,SW,225,0.7,0.7,42,0.00,,,0.00,WUHU216HW,2013-02-04 19:30:00,
2013-02-04 14:35:00,50.0,27.7,30.07,SW,225,0.7,0.7,42,0.00,,,0.00,WUHU216HW,2013-02-04 19:35:00,
2013-02-04 15:00:00,50.4,28.1,30.06,East,90,0.0,0.0,42,0.00,,,0.00,WUHU216HW,2013-02-04 20:00:00,
2013-02-04 15:05:00,50.4,28.1,30.06,East,90,0.0,0.0,42,0.00,,,0.00,WUHU216HW,2013-02-04 20:05:00,
2013-02-04 15:30:00,51.5,27.9,30.06,South,180,1.1,1.1,40,0.00,,,0.00,WUHU216HW,2013-02-04 20:30:00,
2013-02-04 15:35:00,51.5,27.9,30.06,South,180,1.1,1.1,40,0.00,,,0.00,WUHU216HW,2013-02-04 20:35:00,
2013-02-04 16:00:00,50.8,27.8,30.05,SW,225,1.1,1.1,41,0.00,,,0.00,WUHU216HW,2013-02-04 21:00:00,
2013-02-04 16:05:00,50.8,27.8,30.05,SW,225,1.1,1.1,41,0.00,,,0.00,WUHU216HW,2013-02-04 21:05:00,
2013-02-04 16:30:00,50.0,27.7,30.05,SSW,203,0.2,0.2,42,0.00,,,0.00,WUHU216HW,2013-02-04 21:30:00,
2013-02-04 16:35:00,50.0,27.7,30.05,SSW,203,0.2,0.2,42,0.00,,,0.00,WUHU216HW,2013-02-04 21:35:00,
2013-02-04 16:59:00,49.0,27.9,30.05,SSW,203,0.7,0.7,44,0.00,,,0.00,WUHU216HW,2013-02-04 21:59:00,
2013-02-04 17:00:00,49.0,27.9,30.05,SSW,203,0.7,0.7,44,0.00,,,0.00,WUHU216HW,2013-02-04 22:00:00,
2013-02-04 17:05:00,49.0,27.9,30.05,SSW,203,0.7,0.7,44,0.00,,,0.00,WUHU216HW,2013-02-04 22:05:00,
2013-02-04 17:30:00,47.5,28.7,30.05,ESE,113,0.0,0.0,48,0.00,,,0.00,WUHU216HW,2013-02-04 22:30:00,
2013-02-04 17:35:00,47.5,28.7,30.05,ESE,113,0.0,0.0,48,0.00,,,0.00,WUHU216HW,2013-02-04 22:35:00,
2013-02-04 17:59:00,46.4,28.3,30.05,SW,225,0.2,0.2,49,0.00,,,0.00,WUHU216HW,2013-02-04 22:59:00,
2013-02-04 18:00:00,46.4,28.3,30.05,SW,225,0.2,0.2,49,0.00,,,0.00,WUHU216HW,2013-02-04 23:00:00,
2013-02-04 18:05:00,46.4,28.3,30.05,SW,225,0.2,0.2,49,0.00,,,0.00,WUHU216HW,2013-02-04 23:05:00,
2013-02-04 18:30:00,45.7,28.6,30.05,SSW,203,0.0,0.0,51,0.00,,,0.00,WUHU216HW,2013-02-04 23:30:00,
2013-02-04 18:35:00,45.7,28.6,30.05,SSW,203,0.0,0.0,51,0.00,,,0.00,WUHU216HW,2013-02-04 23:35:00,
2013-02-04 18:59:00,44.3,29.1,30.05,South,180,0.0,0.0,55,0.00,,,0.00,WUHU216HW,2013-02-04 23:59:00,
2013-02-04 19:00:00,44.3,29.1,30.05,South,180,0.0,0.0,55,0.00,,,0.00,WUHU216HW,2013-02-05 00:00:00,
2013-02-04 19:05:00,44.3,29.1,30.05,South,180,0.0,0.0,55,0.00,,,0.00,WUHU216HW,2013-02-05 00:05:00,
2013-02-04 19:30:00,43.2,28.9,30.05,SSW,203,0.0,0.0,57,0.00,,,0.00,WUHU216HW,2013-02-05 00:30:00,
2013-02-04 19:35:00,43.2,28.9,30.05,SSW,203,0.0,0.0,57,0.00,,,0.00,WUHU216HW,2013-02-05 00:35:00,
2013-02-04 20:00:00,42.1,29.3,30.06,SW,225,0.0,0.0,60,0.00,,,0.00,WUHU216HW,2013-02-05 01:00:00,
2013-02-04 20:05:00,42.1,29.3,30.06,SW,225,0.0,0.0,60,0.00,,,0.00,WUHU216HW,2013-02-05 01:05:00,
2013-02-04 20:30:00,42.7,29.7,30.04,SSE,158,0.0,0.0,60,0.00,,,0.00,WUHU216HW,2013-02-05 01:30:00,
2013-02-04 20:35:00,42.7,29.7,30.04,SSE,158,0.0,0.0,60,0.00,,,0.00,WUHU216HW,2013-02-05 01:35:00,
2013-02-04 20:59:00,41.2,29.2,30.04,SSW,203,0.0,0.0,62,0.00,,,0.00,WUHU216HW,2013-02-05 01:59:00,
2013-02-04 21:00:00,41.2,29.2,30.04,SSW,203,0.0,0.0,62,0.00,,,0.00,WUHU216HW,2013-02-05 02:00:00,
2013-02-04 21:05:00,41.2,29.2,30.04,SSW,203,0.0,0.0,62,0.00,,,0.00,WUHU216HW,2013-02-05 02:05:00,
2013-02-04 21:30:00,40.9,29.6,30.04,SW,225,1.1,1.1,64,0.00,,,0.00,WUHU216HW,2013-02-05 02:30:00,
2013-02-04 21:35:00,40.9,29.6,30.04,SW,225,1.1,1.1,64,0.00,,,0.00,WUHU216HW,2013-02-05 02:35:00,
2013-02-04 21:59:00,40.7,29.8,30.04,SSW,203,0.4,0.4,65,0.00,,,0.00,WUHU216HW,2013-02-05 02:59:00,
2013-02-04 22:00:00,40.7,29.8,30.04,SSW,203,0.4,0.4,65,0.00,,,0.00,WUHU216HW,2013-02-05 03:00:00,
2013-02-04 22:05:00,40.7,29.8,30.04,SSW,203,0.4,0.4,65,0.00,,,0.00,WUHU216HW,2013-02-05 03:05:00,
2013-02-04 22:30:00,40.3,30.2,30.05,SSW,203,0.2,0.2,67,0.00,,,0.00,WUHU216HW,2013-02-05 03:30:00,
2013-02-04 22:35:00,40.3,30.2,30.05,SSW,203,0.2,0.2,67,0.00,,,0.00,WUHU216HW,2013-02-05 03:35:00,